Year,Month,Day,Hour,Minute,Value (Times are PST for temperature in C)
2009,11,27,00,00,5.90
2009,11,27,00,01,5.90
2009,11,27,00,02,5.90
2009,11,27,00,03,5.90
2009,11,27,00,04,5.90
2009,11,27,00,05,5.90
2009,11,27,00,06,5.90
2009,11,27,00,07,5.90
2009,11,27,00,08,5.90
2009,11,27,00,09,5.90
2009,11,27,00,10,5.90
2009,11,27,00,11,5.90
2009,11,27,00,12,5.90
2009,11,27,00,13,5.90
2009,11,27,00,14,5.90
2009,11,27,00,15,5.90
2009,11,27,00,16,5.90
2009,11,27,00,17,5.90
2009,11,27,00,18,5.90
2009,11,27,00,19,5.80
2009,11,27,00,20,5.80
2009,11,27,00,21,5.80
2009,11,27,00,22,5.80
2009,11,27,00,23,5.80
2009,11,27,00,24,5.80
2009,11,27,00,25,5.80
2009,11,27,00,26,5.80
2009,11,27,00,27,5.80
2009,11,27,00,28,5.80
2009,11,27,00,29,5.80
2009,11,27,00,30,5.80
2009,11,27,00,31,5.80
2009,11,27,00,32,5.90
2009,11,27,00,33,5.90
2009,11,27,00,34,5.90
2009,11,27,00,35,5.90
2009,11,27,00,36,5.90
2009,11,27,00,37,5.90
2009,11,27,00,38,5.90
2009,11,27,00,39,5.90
2009,11,27,00,40,5.90
2009,11,27,00,41,5.90
2009,11,27,00,42,5.80
2009,11,27,00,43,5.80
2009,11,27,00,44,5.80
2009,11,27,00,45,5.80
2009,11,27,00,46,5.80
2009,11,27,00,47,5.80
2009,11,27,00,48,5.80
2009,11,27,00,49,5.80
2009,11,27,00,50,5.70
2009,11,27,00,51,5.70
2009,11,27,00,52,5.70
2009,11,27,00,53,5.80
2009,11,27,00,54,5.80
2009,11,27,00,55,5.80
2009,11,27,00,56,5.80
2009,11,27,00,57,5.80
2009,11,27,00,58,5.80
2009,11,27,00,59,5.80
2009,11,27,01,00,5.80
2009,11,27,01,01,5.80
2009,11,27,01,02,5.80
2009,11,27,01,03,5.80
2009,11,27,01,04,5.80
2009,11,27,01,05,5.80
2009,11,27,01,06,5.80
2009,11,27,01,07,5.80
2009,11,27,01,08,5.80
2009,11,27,01,09,5.70
2009,11,27,01,10,5.70
2009,11,27,01,11,5.80
2009,11,27,01,12,5.80
2009,11,27,01,13,5.70
2009,11,27,01,14,5.70
2009,11,27,01,15,5.70
2009,11,27,01,16,5.70
2009,11,27,01,17,5.70
2009,11,27,01,18,5.60
2009,11,27,01,19,5.60
2009,11,27,01,20,5.60
2009,11,27,01,21,5.50
2009,11,27,01,22,5.50
2009,11,27,01,23,5.50
2009,11,27,01,24,5.50
2009,11,27,01,25,5.50
2009,11,27,01,26,5.40
2009,11,27,01,27,5.40
2009,11,27,01,28,5.40
2009,11,27,01,29,5.40
2009,11,27,01,30,5.30
2009,11,27,01,31,5.30
2009,11,27,01,32,5.30
2009,11,27,01,33,5.30
2009,11,27,01,34,5.30
2009,11,27,01,35,5.30
2009,11,27,01,36,5.30
2009,11,27,01,37,5.30
2009,11,27,01,38,5.30
2009,11,27,01,39,5.20
2009,11,27,01,40,5.20
2009,11,27,01,41,5.20
2009,11,27,01,42,5.10
2009,11,27,01,43,5.10
2009,11,27,01,44,5.10
2009,11,27,01,45,5.10
2009,11,27,01,46,5.00
2009,11,27,01,47,5.00
2009,11,27,01,48,4.90
2009,11,27,01,49,4.90
2009,11,27,01,50,4.90
2009,11,27,01,51,4.90
2009,11,27,01,52,4.90
2009,11,27,01,53,4.90
2009,11,27,01,54,4.90
2009,11,27,01,55,4.90
2009,11,27,01,56,4.90
2009,11,27,01,57,4.80
2009,11,27,01,58,4.80
2009,11,27,01,59,4.80
2009,11,27,02,00,4.80
2009,11,27,02,01,4.80
2009,11,27,02,02,4.70
2009,11,27,02,03,4.70
2009,11,27,02,04,4.70
2009,11,27,02,05,4.70
2009,11,27,02,06,4.70
2009,11,27,02,07,4.60
2009,11,27,02,08,4.60
2009,11,27,02,09,4.60
2009,11,27,02,10,4.60
2009,11,27,02,11,4.50
2009,11,27,02,12,4.50
2009,11,27,02,13,4.50
2009,11,27,02,14,4.40
2009,11,27,02,15,4.40
2009,11,27,02,16,4.50
2009,11,27,02,17,4.40
2009,11,27,02,18,4.40
2009,11,27,02,19,4.40
2009,11,27,02,20,4.30
2009,11,27,02,21,4.30
2009,11,27,02,22,4.30
2009,11,27,02,23,4.20
2009,11,27,02,24,4.20
2009,11,27,02,25,4.20
2009,11,27,02,26,4.20
2009,11,27,02,27,4.20
2009,11,27,02,28,4.10
2009,11,27,02,29,4.10
2009,11,27,02,30,4.10
2009,11,27,02,31,4.10
2009,11,27,02,32,4.10
2009,11,27,02,33,4.10
2009,11,27,02,34,4.10
2009,11,27,02,35,4.10
2009,11,27,02,36,4.10
2009,11,27,02,37,4.00
2009,11,27,02,38,4.00
2009,11,27,02,39,3.90
2009,11,27,02,40,3.90
2009,11,27,02,41,3.90
2009,11,27,02,42,3.80
2009,11,27,02,43,3.80
2009,11,27,02,44,3.80
2009,11,27,02,45,3.70
2009,11,27,02,46,3.70
2009,11,27,02,47,3.70
2009,11,27,02,48,3.60
2009,11,27,02,49,3.60
2009,11,27,02,50,3.60
2009,11,27,02,51,3.50
2009,11,27,02,52,3.50
2009,11,27,02,53,3.40
2009,11,27,02,54,3.40
2009,11,27,02,55,3.30
2009,11,27,02,56,3.30
2009,11,27,02,57,3.30
2009,11,27,02,58,3.20
2009,11,27,02,59,3.20
2009,11,27,03,00,3.10
2009,11,27,03,01,3.10
2009,11,27,03,02,3.00
2009,11,27,03,03,3.00
2009,11,27,03,04,3.00
2009,11,27,03,05,2.90
2009,11,27,03,06,2.90
2009,11,27,03,07,2.90
2009,11,27,03,08,2.90
2009,11,27,03,09,2.90
2009,11,27,03,10,2.80
2009,11,27,03,11,2.80
2009,11,27,03,12,2.80
2009,11,27,03,13,2.70
2009,11,27,03,14,2.70
2009,11,27,03,15,2.70
2009,11,27,03,16,2.60
2009,11,27,03,17,2.60
2009,11,27,03,18,2.60
2009,11,27,03,19,2.60
2009,11,27,03,20,2.60
2009,11,27,03,21,2.60
2009,11,27,03,22,2.50
2009,11,27,03,23,2.50
2009,11,27,03,24,2.40
2009,11,27,03,25,2.40
2009,11,27,03,26,2.30
2009,11,27,03,27,2.30
2009,11,27,03,28,2.20
2009,11,27,03,29,2.20
2009,11,27,03,30,2.20
2009,11,27,03,31,2.20
2009,11,27,03,32,2.20
2009,11,27,03,33,2.10
2009,11,27,03,34,2.10
2009,11,27,03,35,2.10
2009,11,27,03,36,2.10
2009,11,27,03,37,2.10
2009,11,27,03,38,2.10
2009,11,27,03,39,2.10
2009,11,27,03,40,2.10
2009,11,27,03,41,2.10
2009,11,27,03,42,2.00
2009,11,27,03,43,2.00
2009,11,27,03,44,2.00
2009,11,27,03,45,1.90
2009,11,27,03,46,1.90
2009,11,27,03,47,1.90
2009,11,27,03,48,1.90
2009,11,27,03,49,1.80
2009,11,27,03,50,1.80
2009,11,27,03,51,1.80
2009,11,27,03,52,1.80
2009,11,27,03,53,1.80
2009,11,27,03,54,1.80
2009,11,27,03,55,1.80
2009,11,27,03,56,1.80
2009,11,27,03,57,1.80
2009,11,27,03,58,1.70
2009,11,27,03,59,1.70
2009,11,27,04,00,1.70
2009,11,27,04,01,1.70
2009,11,27,04,02,1.70
2009,11,27,04,03,1.70
2009,11,27,04,04,1.70
2009,11,27,04,05,1.70
2009,11,27,04,06,1.70
2009,11,27,04,07,1.70
2009,11,27,04,08,1.70
2009,11,27,04,09,1.70
2009,11,27,04,10,1.70
2009,11,27,04,11,1.70
2009,11,27,04,12,1.70
2009,11,27,04,13,1.70
2009,11,27,04,14,1.80
2009,11,27,04,15,1.90
2009,11,27,04,16,2.00
2009,11,27,04,17,2.10
2009,11,27,04,18,2.10
2009,11,27,04,19,2.20
2009,11,27,04,20,2.20
2009,11,27,04,21,2.30
2009,11,27,04,22,2.30
2009,11,27,04,23,2.20
2009,11,27,04,24,2.20
2009,11,27,04,25,2.10
2009,11,27,04,26,2.10
2009,11,27,04,27,2.10
2009,11,27,04,28,2.10
2009,11,27,04,29,2.00
2009,11,27,04,30,2.00
2009,11,27,04,31,1.90
2009,11,27,04,32,1.90
2009,11,27,04,33,1.80
2009,11,27,04,34,1.80
2009,11,27,04,35,1.80
2009,11,27,04,36,1.70
2009,11,27,04,37,1.70
2009,11,27,04,38,1.60
2009,11,27,04,39,1.60
2009,11,27,04,40,1.60
2009,11,27,04,41,1.50
2009,11,27,04,42,1.50
2009,11,27,04,43,1.50
2009,11,27,04,44,1.40
2009,11,27,04,45,1.40
2009,11,27,04,46,1.40
2009,11,27,04,47,1.40
2009,11,27,04,48,1.30
2009,11,27,04,49,1.30
2009,11,27,04,50,1.30
2009,11,27,04,51,1.30
2009,11,27,04,52,1.30
2009,11,27,04,53,1.20
2009,11,27,04,54,1.20
2009,11,27,04,55,1.10
2009,11,27,04,56,1.10
2009,11,27,04,57,1.10
2009,11,27,04,58,1.10
2009,11,27,04,59,1.10
2009,11,27,05,00,1.10
2009,11,27,05,01,1.10
2009,11,27,05,02,1.20
2009,11,27,05,03,1.20
2009,11,27,05,04,1.20
2009,11,27,05,05,1.20
2009,11,27,05,06,1.20
2009,11,27,05,07,1.20
2009,11,27,05,08,1.20
2009,11,27,05,09,1.10
2009,11,27,05,10,1.10
2009,11,27,05,11,1.10
2009,11,27,05,12,1.00
2009,11,27,05,13,1.00
2009,11,27,05,14,1.00
2009,11,27,05,15,0.90
2009,11,27,05,16,0.90
2009,11,27,05,17,0.90
2009,11,27,05,18,0.90
2009,11,27,05,19,0.90
2009,11,27,05,20,0.90
2009,11,27,05,21,0.80
2009,11,27,05,22,0.80
2009,11,27,05,23,0.80
2009,11,27,05,24,0.80
2009,11,27,05,25,0.80
2009,11,27,05,26,0.80
2009,11,27,05,27,0.70
2009,11,27,05,28,0.70
2009,11,27,05,29,0.70
2009,11,27,05,30,0.70
2009,11,27,05,31,0.70
2009,11,27,05,32,0.60
2009,11,27,05,33,0.60
2009,11,27,05,34,0.60
2009,11,27,05,35,0.60
2009,11,27,05,36,0.50
2009,11,27,05,37,0.50
2009,11,27,05,38,0.50
2009,11,27,05,39,0.60
2009,11,27,05,40,0.50
2009,11,27,05,41,0.50
2009,11,27,05,42,0.50
2009,11,27,05,43,0.50
2009,11,27,05,44,0.40
2009,11,27,05,45,0.40
2009,11,27,05,46,0.40
2009,11,27,05,47,0.40
2009,11,27,05,48,0.40
2009,11,27,05,49,0.30
2009,11,27,05,50,0.30
2009,11,27,05,51,0.40
2009,11,27,05,52,0.60
2009,11,27,05,53,0.60
2009,11,27,05,54,0.70
2009,11,27,05,55,0.70
2009,11,27,05,56,0.70
2009,11,27,05,57,0.80
2009,11,27,05,58,0.80
2009,11,27,05,59,0.70
2009,11,27,06,00,0.70
2009,11,27,06,01,0.70
2009,11,27,06,02,0.70
2009,11,27,06,03,0.70
2009,11,27,06,04,0.70
2009,11,27,06,05,0.70
2009,11,27,06,06,0.60
2009,11,27,06,07,0.60
2009,11,27,06,08,0.60
2009,11,27,06,09,0.60
2009,11,27,06,10,0.60
2009,11,27,06,11,0.60
2009,11,27,06,12,0.50
2009,11,27,06,13,0.50
2009,11,27,06,14,0.60
2009,11,27,06,15,0.60
2009,11,27,06,16,0.60
2009,11,27,06,17,0.60
2009,11,27,06,18,0.60
2009,11,27,06,19,0.60
2009,11,27,06,20,0.60
2009,11,27,06,21,0.60
2009,11,27,06,22,0.60
2009,11,27,06,23,0.70
2009,11,27,06,24,0.70
2009,11,27,06,25,0.90
2009,11,27,06,26,1.00
2009,11,27,06,27,1.20
2009,11,27,06,28,1.30
2009,11,27,06,29,1.30
2009,11,27,06,30,1.30
2009,11,27,06,31,1.30
2009,11,27,06,32,1.40
2009,11,27,06,33,1.50
2009,11,27,06,34,1.50
2009,11,27,06,35,1.50
2009,11,27,06,36,1.50
2009,11,27,06,37,1.40
2009,11,27,06,38,1.40
2009,11,27,06,39,1.40
2009,11,27,06,40,1.40
2009,11,27,06,41,1.40
2009,11,27,06,42,1.40
2009,11,27,06,43,1.40
2009,11,27,06,44,1.30
2009,11,27,06,45,1.30
2009,11,27,06,46,1.20
2009,11,27,06,47,1.10
2009,11,27,06,48,1.00
2009,11,27,06,49,0.80
2009,11,27,06,50,0.70
2009,11,27,06,51,0.60
2009,11,27,06,52,0.60
2009,11,27,06,53,0.50
2009,11,27,06,54,0.40
2009,11,27,06,55,0.30
2009,11,27,06,56,0.30
2009,11,27,06,57,0.30
2009,11,27,06,58,0.40
2009,11,27,06,59,0.40
2009,11,27,07,00,0.40
2009,11,27,07,01,0.40
2009,11,27,07,02,0.40
2009,11,27,07,03,0.40
2009,11,27,07,04,0.40
2009,11,27,07,05,0.40
2009,11,27,07,06,0.40
2009,11,27,07,07,0.30
2009,11,27,07,08,0.30
2009,11,27,07,09,0.30
2009,11,27,07,10,0.30
2009,11,27,07,11,0.30
2009,11,27,07,12,0.20
2009,11,27,07,13,0.20
2009,11,27,07,14,0.10
2009,11,27,07,15,0.10
2009,11,27,07,16,0.10
2009,11,27,07,17,0.10
2009,11,27,07,18,0.10
2009,11,27,07,19,0.20
2009,11,27,07,20,0.20
2009,11,27,07,21,0.30
2009,11,27,07,22,0.30
2009,11,27,07,23,0.30
2009,11,27,07,24,0.30
2009,11,27,07,25,0.30
2009,11,27,07,26,0.30
2009,11,27,07,27,0.30
2009,11,27,07,28,0.20
2009,11,27,07,29,0.20
2009,11,27,07,30,0.20
2009,11,27,07,31,0.20
2009,11,27,07,32,0.10
2009,11,27,07,33,0.10
2009,11,27,07,34,0.10
2009,11,27,07,35,0.10
2009,11,27,07,36,0.20
2009,11,27,07,37,0.10
2009,11,27,07,38,0.10
2009,11,27,07,39,0.00
2009,11,27,07,40,0.00
2009,11,27,07,41,-0.10
2009,11,27,07,42,-0.10
2009,11,27,07,43,-0.10
2009,11,27,07,44,0.00
2009,11,27,07,45,0.00
2009,11,27,07,46,0.00
2009,11,27,07,47,0.00
2009,11,27,07,48,-0.10
2009,11,27,07,49,-0.10
2009,11,27,07,50,-0.10
2009,11,27,07,51,-0.10
2009,11,27,07,52,-0.10
2009,11,27,07,53,-0.20
2009,11,27,07,54,-0.20
2009,11,27,07,55,-0.30
2009,11,27,07,56,-0.30
2009,11,27,07,57,-0.40
2009,11,27,07,58,-0.40
2009,11,27,07,59,-0.40
2009,11,27,08,00,-0.40
2009,11,27,08,01,-0.30
2009,11,27,08,02,-0.30
2009,11,27,08,03,-0.30
2009,11,27,08,04,-0.30
2009,11,27,08,05,-0.30
2009,11,27,08,06,-0.30
2009,11,27,08,07,-0.30
2009,11,27,08,08,-0.20
2009,11,27,08,09,-0.20
2009,11,27,08,10,-0.10
2009,11,27,08,11,-0.10
2009,11,27,08,12,0.00
2009,11,27,08,13,0.10
2009,11,27,08,14,0.20
2009,11,27,08,15,0.20
2009,11,27,08,16,0.20
2009,11,27,08,17,0.30
2009,11,27,08,18,0.30
2009,11,27,08,19,0.40
2009,11,27,08,20,0.50
2009,11,27,08,21,0.50
2009,11,27,08,22,0.60
2009,11,27,08,23,0.60
2009,11,27,08,24,0.60
2009,11,27,08,25,0.60
2009,11,27,08,26,0.50
2009,11,27,08,27,0.50
2009,11,27,08,28,0.50
2009,11,27,08,29,0.40
2009,11,27,08,30,0.50
2009,11,27,08,31,0.60
2009,11,27,08,32,0.70
2009,11,27,08,33,0.70
2009,11,27,08,34,0.80
2009,11,27,08,35,0.90
2009,11,27,08,36,0.90
2009,11,27,08,37,0.90
2009,11,27,08,38,0.90
2009,11,27,08,39,0.90
2009,11,27,08,40,1.00
2009,11,27,08,41,1.10
2009,11,27,08,42,1.10
2009,11,27,08,43,1.10
2009,11,27,08,44,1.10
2009,11,27,08,45,1.20
2009,11,27,08,46,1.20
2009,11,27,08,47,1.30
2009,11,27,08,48,1.30
2009,11,27,08,49,1.30
2009,11,27,08,50,1.30
2009,11,27,08,51,1.30
2009,11,27,08,52,1.30
2009,11,27,08,53,1.40
2009,11,27,08,54,1.40
2009,11,27,08,55,1.40
2009,11,27,08,56,1.40
2009,11,27,08,57,1.50
2009,11,27,08,58,1.60
2009,11,27,08,59,1.70
2009,11,27,09,00,1.70
2009,11,27,09,01,1.70
2009,11,27,09,02,1.70
2009,11,27,09,03,1.80
2009,11,27,09,04,1.80
2009,11,27,09,05,1.80
2009,11,27,09,06,1.90
2009,11,27,09,07,2.00
2009,11,27,09,08,2.00
2009,11,27,09,09,2.10
2009,11,27,09,10,2.20
2009,11,27,09,11,2.30
2009,11,27,09,12,2.40
2009,11,27,09,13,2.60
2009,11,27,09,14,2.70
2009,11,27,09,15,2.70
2009,11,27,09,16,2.80
2009,11,27,09,17,2.80
2009,11,27,09,18,2.90
2009,11,27,09,19,3.00
2009,11,27,09,20,3.10
2009,11,27,09,21,3.10
2009,11,27,09,22,3.10
2009,11,27,09,23,3.10
2009,11,27,09,24,3.10
2009,11,27,09,25,3.20
2009,11,27,09,26,3.20
2009,11,27,09,27,3.20
2009,11,27,09,28,3.30
2009,11,27,09,29,3.40
2009,11,27,09,30,3.40
2009,11,27,09,31,3.40
2009,11,27,09,32,3.40
2009,11,27,09,33,3.50
2009,11,27,09,34,3.50
2009,11,27,09,35,3.60
2009,11,27,09,36,3.70
2009,11,27,09,37,3.70
2009,11,27,09,38,3.70
2009,11,27,09,39,3.70
2009,11,27,09,40,3.60
2009,11,27,09,41,3.60
2009,11,27,09,42,3.70
2009,11,27,09,43,3.70
2009,11,27,09,44,3.70
2009,11,27,09,45,3.80
2009,11,27,09,46,3.80
2009,11,27,09,47,3.80
2009,11,27,09,48,3.80
2009,11,27,09,49,3.90
2009,11,27,09,50,3.90
2009,11,27,09,51,4.00
2009,11,27,09,52,4.00
2009,11,27,09,53,4.00
2009,11,27,09,54,4.10
2009,11,27,09,55,4.10
2009,11,27,09,56,4.10
2009,11,27,09,57,4.10
2009,11,27,09,58,4.20
2009,11,27,09,59,4.20
2009,11,27,10,00,4.30
2009,11,27,10,01,4.30
2009,11,27,10,02,4.30
2009,11,27,10,03,4.40
2009,11,27,10,04,4.40
2009,11,27,10,05,4.50
2009,11,27,10,06,4.60
2009,11,27,10,07,4.70
2009,11,27,10,08,4.80
2009,11,27,10,09,4.90
2009,11,27,10,10,5.00
2009,11,27,10,11,5.10
2009,11,27,10,12,5.20
2009,11,27,10,13,5.30
2009,11,27,10,14,5.40
2009,11,27,10,15,5.50
2009,11,27,10,16,5.60
2009,11,27,10,17,5.70
2009,11,27,10,18,5.70
2009,11,27,10,19,5.80
2009,11,27,10,20,5.80
2009,11,27,10,21,5.80
2009,11,27,10,22,5.80
2009,11,27,10,23,5.80
2009,11,27,10,24,5.80
2009,11,27,10,25,5.80
2009,11,27,10,26,5.80
2009,11,27,10,27,5.80
2009,11,27,10,28,5.80
2009,11,27,10,29,5.90
2009,11,27,10,30,5.90
2009,11,27,10,31,5.90
2009,11,27,10,32,5.80
2009,11,27,10,33,5.90
2009,11,27,10,34,5.90
2009,11,27,10,35,5.90
2009,11,27,10,36,5.90
2009,11,27,10,37,6.00
2009,11,27,10,38,6.00
2009,11,27,10,39,6.10
2009,11,27,10,40,6.00
2009,11,27,10,41,6.10
2009,11,27,10,42,6.10
2009,11,27,10,43,6.10
2009,11,27,10,44,6.10
2009,11,27,10,45,6.10
2009,11,27,10,46,6.00
2009,11,27,10,47,6.00
2009,11,27,10,48,6.00
2009,11,27,10,49,6.00
2009,11,27,10,50,6.00
2009,11,27,10,51,6.10
2009,11,27,10,52,6.00
2009,11,27,10,53,6.00
2009,11,27,10,54,6.00
2009,11,27,10,55,6.00
2009,11,27,10,56,5.90
2009,11,27,10,57,5.90
2009,11,27,10,58,6.00
2009,11,27,10,59,6.00
2009,11,27,11,00,6.00
2009,11,27,11,01,6.10
2009,11,27,11,02,6.10
2009,11,27,11,03,6.10
2009,11,27,11,04,6.10
2009,11,27,11,05,6.10
2009,11,27,11,06,6.10
2009,11,27,11,07,6.20
2009,11,27,11,08,6.20
2009,11,27,11,09,6.20
2009,11,27,11,10,6.20
2009,11,27,11,11,6.30
2009,11,27,11,12,6.30
2009,11,27,11,13,6.30
2009,11,27,11,14,6.40
2009,11,27,11,15,6.40
2009,11,27,11,16,6.50
2009,11,27,11,17,6.50
2009,11,27,11,18,6.50
2009,11,27,11,19,6.60
2009,11,27,11,20,6.60
2009,11,27,11,21,6.60
2009,11,27,11,22,6.60
2009,11,27,11,23,6.60
2009,11,27,11,24,6.60
2009,11,27,11,25,6.60
2009,11,27,11,26,6.70
2009,11,27,11,27,6.80
2009,11,27,11,28,6.80
2009,11,27,11,29,6.80
2009,11,27,11,30,6.80
2009,11,27,11,31,6.90
2009,11,27,11,32,6.90
2009,11,27,11,33,7.00
2009,11,27,11,34,7.00
2009,11,27,11,35,7.10
2009,11,27,11,36,7.10
2009,11,27,11,37,7.10
2009,11,27,11,38,7.10
2009,11,27,11,39,7.10
2009,11,27,11,40,7.10
2009,11,27,11,41,7.10
2009,11,27,11,42,7.10
2009,11,27,11,43,7.10
2009,11,27,11,44,7.10
2009,11,27,11,45,7.20
2009,11,27,11,46,7.20
2009,11,27,11,47,7.30
2009,11,27,11,48,7.30
2009,11,27,11,49,7.30
2009,11,27,11,50,7.30
2009,11,27,11,51,7.30
2009,11,27,11,52,7.30
2009,11,27,11,53,7.30
2009,11,27,11,54,7.40
2009,11,27,11,55,7.50
2009,11,27,11,56,7.50
2009,11,27,11,57,7.60
2009,11,27,11,58,7.70
2009,11,27,11,59,7.80
2009,11,27,12,00,7.80
2009,11,27,12,01,7.90
2009,11,27,12,02,7.90
2009,11,27,12,03,7.90
2009,11,27,12,04,7.90
2009,11,27,12,05,7.90
2009,11,27,12,06,7.90
2009,11,27,12,07,7.90
2009,11,27,12,08,7.90
2009,11,27,12,09,8.00
2009,11,27,12,10,8.10
2009,11,27,12,11,8.10
2009,11,27,12,12,8.20
2009,11,27,12,13,8.20
2009,11,27,12,14,8.20
2009,11,27,12,15,8.20
2009,11,27,12,16,8.10
2009,11,27,12,17,8.10
2009,11,27,12,18,8.10
2009,11,27,12,19,8.10
2009,11,27,12,20,8.20
2009,11,27,12,21,8.10
2009,11,27,12,22,8.10
2009,11,27,12,23,8.10
2009,11,27,12,24,8.10
2009,11,27,12,25,8.10
2009,11,27,12,26,8.10
2009,11,27,12,27,8.20
2009,11,27,12,28,8.20
2009,11,27,12,29,8.10
2009,11,27,12,30,8.20
2009,11,27,12,31,8.20
2009,11,27,12,32,8.20
2009,11,27,12,33,8.10
2009,11,27,12,34,8.10
2009,11,27,12,35,8.10
2009,11,27,12,36,8.10
2009,11,27,12,37,8.20
2009,11,27,12,38,8.20
2009,11,27,12,39,8.20
2009,11,27,12,40,8.20
2009,11,27,12,41,8.20
2009,11,27,12,42,8.20
2009,11,27,12,43,8.20
2009,11,27,12,44,8.20
2009,11,27,12,45,8.20
2009,11,27,12,46,8.20
2009,11,27,12,47,8.30
2009,11,27,12,48,8.30
2009,11,27,12,49,8.30
2009,11,27,12,50,8.30
2009,11,27,12,51,8.30
2009,11,27,12,52,8.30
2009,11,27,12,53,8.30
2009,11,27,12,54,8.30
2009,11,27,12,55,8.30
2009,11,27,12,56,8.30
2009,11,27,12,57,8.30
2009,11,27,12,58,8.30
2009,11,27,12,59,8.30
2009,11,27,13,00,8.40
2009,11,27,13,01,8.40
2009,11,27,13,02,8.40
2009,11,27,13,03,8.40
2009,11,27,13,04,8.30
2009,11,27,13,05,8.30
2009,11,27,13,06,8.30
2009,11,27,13,07,8.30
2009,11,27,13,08,8.30
2009,11,27,13,09,8.40
2009,11,27,13,10,8.40
2009,11,27,13,11,8.40
2009,11,27,13,12,8.30
2009,11,27,13,13,8.30
2009,11,27,13,14,8.30
2009,11,27,13,15,8.30
2009,11,27,13,16,8.30
2009,11,27,13,17,8.30
2009,11,27,13,18,8.30
2009,11,27,13,19,8.30
2009,11,27,13,20,8.30
2009,11,27,13,21,8.30
2009,11,27,13,22,8.30
2009,11,27,13,23,8.30
2009,11,27,13,24,8.30
2009,11,27,13,25,8.30
2009,11,27,13,26,8.30
2009,11,27,13,27,8.40
2009,11,27,13,28,8.30
2009,11,27,13,29,8.30
2009,11,27,13,30,8.30
2009,11,27,13,31,8.30
2009,11,27,13,32,8.20
2009,11,27,13,33,8.20
2009,11,27,13,34,8.10
2009,11,27,13,35,8.10
2009,11,27,13,36,8.10
2009,11,27,13,37,8.10
2009,11,27,13,38,8.10
2009,11,27,13,39,8.20
2009,11,27,13,40,8.20
2009,11,27,13,41,8.20
2009,11,27,13,42,8.20
2009,11,27,13,43,8.20
2009,11,27,13,44,8.20
2009,11,27,13,45,8.10
2009,11,27,13,46,8.10
2009,11,27,13,47,8.10
2009,11,27,13,48,8.10
2009,11,27,13,49,8.10
2009,11,27,13,50,8.00
2009,11,27,13,51,8.00
2009,11,27,13,52,8.10
2009,11,27,13,53,8.10
2009,11,27,13,54,8.10
2009,11,27,13,55,8.10
2009,11,27,13,56,8.00
2009,11,27,13,57,8.00
2009,11,27,13,58,8.00
2009,11,27,13,59,8.00
2009,11,27,14,00,8.00
2009,11,27,14,01,8.00
2009,11,27,14,02,8.00
2009,11,27,14,03,8.00
2009,11,27,14,04,8.00
2009,11,27,14,05,8.00
2009,11,27,14,06,8.00
2009,11,27,14,07,8.00
2009,11,27,14,08,8.00
2009,11,27,14,09,7.90
2009,11,27,14,10,7.90
2009,11,27,14,11,7.90
2009,11,27,14,12,7.90
2009,11,27,14,13,7.80
2009,11,27,14,14,7.80
2009,11,27,14,15,7.80
2009,11,27,14,16,7.80
2009,11,27,14,17,7.80
2009,11,27,14,18,7.80
2009,11,27,14,19,7.80
2009,11,27,14,20,7.80
2009,11,27,14,21,7.90
2009,11,27,14,22,7.90
2009,11,27,14,23,7.90
2009,11,27,14,24,7.90
2009,11,27,14,25,7.90
2009,11,27,14,26,7.90
2009,11,27,14,27,7.80
2009,11,27,14,28,7.80
2009,11,27,14,29,7.80
2009,11,27,14,30,7.70
2009,11,27,14,31,7.70
2009,11,27,14,32,7.70
2009,11,27,14,33,7.70
2009,11,27,14,34,7.70
2009,11,27,14,35,7.70
2009,11,27,14,36,7.70
2009,11,27,14,37,7.70
2009,11,27,14,38,7.70
2009,11,27,14,39,7.70
2009,11,27,14,40,7.70
2009,11,27,14,41,7.70
2009,11,27,14,42,7.70
2009,11,27,14,43,7.70
2009,11,27,14,44,7.70
2009,11,27,14,45,7.60
2009,11,27,14,46,7.60
2009,11,27,14,47,7.60
2009,11,27,14,48,7.60
2009,11,27,14,49,7.60
2009,11,27,14,50,7.60
2009,11,27,14,51,7.60
2009,11,27,14,52,7.60
2009,11,27,14,53,7.60
2009,11,27,14,54,7.60
2009,11,27,14,55,7.70
2009,11,27,14,56,7.70
2009,11,27,14,57,7.70
2009,11,27,14,58,7.70
2009,11,27,14,59,7.70
2009,11,27,15,00,7.70
2009,11,27,15,01,7.70
2009,11,27,15,02,7.70
2009,11,27,15,03,7.70
2009,11,27,15,04,7.70
2009,11,27,15,05,7.70
2009,11,27,15,06,7.70
2009,11,27,15,07,7.70
2009,11,27,15,08,7.70
2009,11,27,15,09,7.70
2009,11,27,15,10,7.70
2009,11,27,15,11,7.70
2009,11,27,15,12,7.70
2009,11,27,15,13,7.70
2009,11,27,15,14,7.70
2009,11,27,15,15,7.70
2009,11,27,15,16,7.70
2009,11,27,15,17,7.60
2009,11,27,15,18,7.60
2009,11,27,15,19,7.50
2009,11,27,15,20,7.40
2009,11,27,15,21,7.40
2009,11,27,15,22,7.40
2009,11,27,15,23,7.30
2009,11,27,15,24,7.30
2009,11,27,15,25,7.30
2009,11,27,15,26,7.20
2009,11,27,15,27,7.20
2009,11,27,15,28,7.20
2009,11,27,15,29,7.20
2009,11,27,15,30,7.20
2009,11,27,15,31,7.20
2009,11,27,15,32,7.20
2009,11,27,15,33,7.20
2009,11,27,15,34,7.20
2009,11,27,15,35,7.20
2009,11,27,15,36,7.20
2009,11,27,15,37,7.20
2009,11,27,15,38,7.20
2009,11,27,15,39,7.20
2009,11,27,15,40,7.20
2009,11,27,15,41,7.20
2009,11,27,15,42,7.20
2009,11,27,15,43,7.20
2009,11,27,15,44,7.20
2009,11,27,15,45,7.20
2009,11,27,15,46,7.20
2009,11,27,15,47,7.10
2009,11,27,15,48,7.10
2009,11,27,15,49,7.10
2009,11,27,15,50,7.10
2009,11,27,15,51,7.10
2009,11,27,15,52,7.00
2009,11,27,15,53,7.00
2009,11,27,15,54,7.00
2009,11,27,15,55,7.00
2009,11,27,15,56,6.90
2009,11,27,15,57,6.90
2009,11,27,15,58,6.90
2009,11,27,15,59,6.90
2009,11,27,16,00,6.90
2009,11,27,16,01,6.90
2009,11,27,16,02,6.80
2009,11,27,16,03,6.80
2009,11,27,16,04,6.80
2009,11,27,16,05,6.80
2009,11,27,16,06,6.80
2009,11,27,16,07,6.80
2009,11,27,16,08,6.70
2009,11,27,16,09,6.70
2009,11,27,16,10,6.70
2009,11,27,16,11,6.70
2009,11,27,16,12,6.60
2009,11,27,16,13,6.60
2009,11,27,16,14,6.60
2009,11,27,16,15,6.60
2009,11,27,16,16,6.50
2009,11,27,16,17,6.50
2009,11,27,16,18,6.50
2009,11,27,16,19,6.50
2009,11,27,16,20,6.40
2009,11,27,16,21,6.40
2009,11,27,16,22,6.40
2009,11,27,16,23,6.40
2009,11,27,16,24,6.40
2009,11,27,16,25,6.40
2009,11,27,16,26,6.40
2009,11,27,16,27,6.30
2009,11,27,16,28,6.30
2009,11,27,16,29,6.30
2009,11,27,16,30,6.30
2009,11,27,16,31,6.20
2009,11,27,16,32,6.20
2009,11,27,16,33,6.20
2009,11,27,16,34,6.10
2009,11,27,16,35,6.10
2009,11,27,16,36,6.10
2009,11,27,16,37,6.10
2009,11,27,16,38,6.00
2009,11,27,16,39,6.00
2009,11,27,16,40,6.00
2009,11,27,16,41,6.00
2009,11,27,16,42,5.90
2009,11,27,16,43,5.90
2009,11,27,16,44,5.90
2009,11,27,16,45,5.90
2009,11,27,16,46,5.90
2009,11,27,16,47,5.90
2009,11,27,16,48,5.90
2009,11,27,16,49,5.90
2009,11,27,16,50,5.90
2009,11,27,16,51,5.80
2009,11,27,16,52,5.80
2009,11,27,16,53,5.80
2009,11,27,16,54,5.80
2009,11,27,16,55,5.80
2009,11,27,16,56,5.70
2009,11,27,16,57,5.70
2009,11,27,16,58,5.70
2009,11,27,16,59,5.70
2009,11,27,17,00,5.70
2009,11,27,17,01,5.70
2009,11,27,17,02,5.70
2009,11,27,17,03,5.70
2009,11,27,17,04,5.70
2009,11,27,17,05,5.70
2009,11,27,17,06,5.60
2009,11,27,17,07,5.60
2009,11,27,17,08,5.60
2009,11,27,17,09,5.60
2009,11,27,17,10,5.60
2009,11,27,17,11,5.60
2009,11,27,17,12,5.60
2009,11,27,17,13,5.50
2009,11,27,17,14,5.50
2009,11,27,17,15,5.50
2009,11,27,17,16,5.50
2009,11,27,17,17,5.40
2009,11,27,17,18,5.40
2009,11,27,17,19,5.40
2009,11,27,17,20,5.40
2009,11,27,17,21,5.40
2009,11,27,17,22,5.40
2009,11,27,17,23,5.40
2009,11,27,17,24,5.40
2009,11,27,17,25,5.40
2009,11,27,17,26,5.40
2009,11,27,17,27,5.40
2009,11,27,17,28,5.40
2009,11,27,17,29,5.40
2009,11,27,17,30,5.30
2009,11,27,17,31,5.30
2009,11,27,17,32,5.30
2009,11,27,17,33,5.30
2009,11,27,17,34,5.30
2009,11,27,17,35,5.30
2009,11,27,17,36,5.30
2009,11,27,17,37,5.30
2009,11,27,17,38,5.30
2009,11,27,17,39,5.30
2009,11,27,17,40,5.20
2009,11,27,17,41,5.20
2009,11,27,17,42,5.20
2009,11,27,17,43,5.20
2009,11,27,17,44,5.20
2009,11,27,17,45,5.20
2009,11,27,17,46,5.20
2009,11,27,17,47,5.20
2009,11,27,17,48,5.10
2009,11,27,17,49,5.10
2009,11,27,17,50,5.10
2009,11,27,17,51,5.10
2009,11,27,17,52,5.10
2009,11,27,17,53,5.10
2009,11,27,17,54,5.10
2009,11,27,17,55,5.10
2009,11,27,17,56,5.10
2009,11,27,17,57,5.20
2009,11,27,17,58,5.20
2009,11,27,17,59,5.20
2009,11,27,18,00,5.20
2009,11,27,18,01,5.20
2009,11,27,18,02,5.20
2009,11,27,18,03,5.20
2009,11,27,18,04,5.20
2009,11,27,18,05,5.10